User: anonymous   Login
Location: The Top Of The Sky Mini Observatory
(41.4300°N, 81.2300°W)
Time: 22:16:59
(UTC-04:00)
Language:

Iridium 86 - Orbit

View from above orbital plane
View from above orbital plane
View from above satellite
View from above satellite

Ground track
Ground track

The orbit data is extracted from the following two-line orbital elements,

1 25528U 98066B   15213.21893560  .00000265  00000-0  87669-4 0  9990
2 25528 086.3950 276.5646 0002550 092.6221 267.5267 14.34219040881049
Epoch (UTC): 01 August 2015 05:15:16
Eccentricity: 0.0002550
inclination: 86.3950°
perigee height: 776 km
apogee height: 779 km
right ascension of ascending node: 276.5646°
argument of perigee: 92.6221°
revolutions per day: 14.34219040
mean anomaly at epoch: 267.5267°
orbit number at epoch: 88104

The dashed part of the orbit path shows where the satellite is in the earth's shadow,  

DLR